Regional Weather Roundup
Issued by NWS

Home | Current Version | Previous Version | Graphics & Text | Print | Product List | Glossary On
Versions: 1 2 3 4 5 6 7 8 9 10 11 12 13 14 15 16 17 18 19 20 21 22 23 24 25 26 27 28 29 30 31 32 33 34 35 36 37 38 39 40 41 42 43 44 45 46 47 48 49 50
000
ASUS43 KMPX 261710
RWRMN
WEATHER ROUNDUP FOR MINNESOTA
NATIONAL WEATHER SERVICE TWIN CITIES/CHANHASSEN MN
1100 AM CST THU FEB 26 2015


NOTE: "FAIR" INDICATES FEW OR NO CLOUDS BELOW 12,000 FEET WITH NO
SIGNIFICANT WEATHER AND/OR OBSTRUCTIONS TO VISIBILITY. N/A MEANS
CURRENT SKY AND/OR WEATHER CONDITIONS ARE NOT AVAILABLE.

MNZ060>063-068>070-261800-
   Twin Cities Metro

CITY           SKY/WX    TMP DP  RH WIND       PRES   REMARKS
TWIN CITIES    SUNNY      5  -9  52 NW6       30.46R WCI  -6
ST PAUL        SUNNY      5 -10  50 NW10G18   30.48R WCI -10
CRYSTAL        SUNNY      5  -8  55 NW9       30.46R WCI  -9
BLAINE         SUNNY      7  -8  51 NW9       30.45R WCI  -7
EDEN PRAIRIE   SUNNY      4  -9  55 NW8       30.45R WCI  -9
SOUTH ST PAUL  SUNNY      5  -9  50 N9        30.46S WCI  -9
LAKE ELMO      FAIR       5  -8  56 N7        30.45R WCI  -7
$$
MNZ001>005-007-008-013>017-022>024-027-028-261800-
   Northwest Minnesota

CITY           SKY/WX    TMP DP  RH WIND       PRES   REMARKS
BEMIDJI        SUNNY     -7 -17  64 W7        30.44S WCI -22
HALLOCK        SUNNY     -6 -15  65 NW6       30.55S WCI -18
ROSEAU         SUNNY     -6 -15  65 W8        30.50R WCI -21
WARROAD        SUNNY     -4 -17  54 W7        30.48R WCI -18
THIEF RVR FALL SUNNY     -6 -18  54 NW8       30.51S WCI -21
CROOKSTON      SUNNY     -4  -9  77 N10       30.57S WCI -21
FOSSTON        SUNNY     -6 -17  59 NW9       30.49S WCI -22
DETROIT LAKES  MOSUNNY   -4 -11  71 N12       30.49R WCI -22
MOORHEAD       SUNNY      0  -8  71 N14       30.56S WCI -19
PARK RAPIDS    SUNNY     -5 -15  62 NW10      30.43R WCI -23
MAHNOMEN       FAIR      -8 -14  74 N9        30.50S WCI -25
$$
MNZ006-009>011-018-025>026-261800-
   North Central Minnesota

CITY           SKY/WX    TMP DP  RH WIND       PRES   REMARKS
BAUDETTE       SUNNY     -9 -18  64 NW5       30.45S WCI -20
FLAG ISLAND    SUNNY     -8 -17  65 CALM      30.45S
INTL FALLS     SUNNY     -4 -17  53 NW12      30.42S WCI -22
WASKISH        SUNNY     -8 -17  65 SW6       30.46S WCI -21
BIG FORK       SUNNY      0 -15  50 NW6       30.41S WCI -12
LONGVILLE      SUNNY     -6 -17  59 W8        30.44S WCI -21
GRAND RAPIDS   SUNNY     -6 -15  65 W3        30.40R
CRANE LAKE     SUNNY     -4 -17  54 W6        30.43R WCI -16
ORR            SUNNY     -4 -17  54 NW8       30.36S WCI -19
COOK           SUNNY     -2 -15  55 W6        30.38F WCI -14
WALKER         FAIR      -6 -17  60 W5        30.44S WCI -17
$$
MNZ012-019>021-037-261800-
   Northeast Minnesota

CITY           SKY/WX    TMP DP  RH WIND       PRES   REMARKS
DULUTH         SUNNY      0 -13  54 NW14      30.36R WCI -19
ELY            SUNNY      0 -15  50 NW14      30.35R WCI -19
HIBBING        SUNNY     -3 -14  59 NW9       30.39R WCI -19
EVELETH        SUNNY     -2 -13  60 N10       30.39R WCI -19
DULUTH HARBOR  SUNNY      3  -9  55 CALM      30.47S
TWO HARBORS    SUNNY      7  -9  47 N7        30.36S WCI  -5
SILVER BAY     SUNNY      7 -11  43 NW5       30.35S WCI  -2
GRAND MARAIS     N/A      6 -12  43 VRB7      30.39F WCI  -6
G MARAIS ARPRT SUNNY      0 -17  46 NW8       30.24S WCI -15
$$
MNZ029>031-032-039>041-046>048-054>057-064-261800-
   West Central Minnesota

CITY           SKY/WX    TMP DP  RH WIND       PRES   REMARKS
FERGUS FALLS   SUNNY     -2 -15  55 N18G26    30.56R WCI -24
WHEATON        SUNNY     -4 -11  71 NW13      30.57S WCI -23
MORRIS         SUNNY      0  -9  65 NW13      30.51R WCI -18
ALEXANDRIA     SUNNY     -4 -13  65 NW14      30.46R WCI -24
ELBOW LAKE     FAIR      -4 -13  67 NW16      30.50S WCI -26
WADENA         SUNNY     -6 -15  65 NW12      30.44S WCI -24
GLENWOOD       SUNNY      0 -11  60 NW15      30.47S WCI -20
APPLETON       SUNNY      1  -9  60 NW10      30.54S WCI -14
BENSON         MOSUNNY    1  -9  60 N12       30.51S WCI -15
ORTONVILLE     SUNNY     -2 -11  65 NW13      30.53S WCI -21
MADISON        SUNNY      0  -9  65 NW12      30.54S WCI -18
WILLMAR        FAIR       0  -9  65 NW13      30.49R WCI -18
$$
MNZ033>034-036-042>043-049>051-058-059-261800-
   Central Minnesota

CITY           SKY/WX    TMP DP  RH WIND       PRES   REMARKS
ST CLOUD       SUNNY      0 -11  59 NW8       30.46S WCI -14
SAUK CENTRE    FAIR      -1 -11  62 NW13      30.46S WCI -19
PAYNESVILLE    SUNNY     -2 -12  63 W10G18    30.47R WCI -19
AITKIN         SUNNY      1 -11  55 CALM      30.42S
PINE RIVER     SUNNY     -6 -15  65 NW6       30.46S WCI -18
BRAINERD       SUNNY     -2 -14  56 N7        30.45R WCI -15
STAPLES        SUNNY     -4 -15  59 W9        30.44S WCI -20
LONG PRAIRIE   FAIR       0 -11  60 W13G18    30.45R WCI -18
LITTLE FALLS   SUNNY      0 -13  55 NW6       30.46S WCI -12
LITCHFIELD     SUNNY      0  -9  65 CALM      30.47R
BUFFALO        SUNNY      3  -9  55 NW9       30.47S WCI -11
MAPLE LAKE     SUNNY      3  -7  61 NW8       30.47S WCI -10
$$
MNZ037-044-045-052-053-261800-
   East Central Minnesota

CITY           SKY/WX    TMP DP  RH WIND       PRES   REMARKS
PRINCETON      SUNNY      3  -9  55 NW3       30.45R
MORA           SUNNY      3  -9  55 N6        30.45S WCI  -8
CAMBRIDGE      SUNNY      3  -9  55 N6        30.44R WCI  -8
RUSH CITY      MOSUNNY    3 -10  54 NW3       30.45S
MOOSE LAKE     SUNNY      3 -13  47 CALM      30.42R
HINCKLEY       FAIR       3  -9  55 NW8       30.43S WCI -10
CLOQUET        SUNNY      0 -15  50 W12G17    30.38S WCI -18
MCGREGOR       SUNNY      1  -9  60 NW6       30.43S WCI -10
$$
MNZ071>073-080-081-089-090-097-098-261800-
   Southwest Minnesota

CITY           SKY/WX    TMP DP  RH WIND       PRES   REMARKS
MONTEVIDEO     SUNNY      1  -9  60 N12       30.53S WCI -15
GRANITE FALLS  SUNNY      0  -9  63 NW13      30.53S WCI -18
CANBY          SUNNY     -1  -9  68 NW14      30.53F WCI -20
MARSHALL       SUNNY      0  -9  65 N17       30.50S WCI -21
REDWOOD FALLS  SUNNY      0 -11  59 N14G21    30.50R WCI -19
OLIVIA         SUNNY      0  -8  71 N17       30.48S WCI -21
PIPESTONE      PTSUNNY   -2  -8  78 N14       30.44R HAZE    WCI -21
WINDOM         PTSUNNY   -2  -9  71 NW16      30.45R WCI -23
WORTHINGTON    MOSUNNY   23 -11  21 NW18      30.44R WCI   9
JACKSON        SUNNY      0  -9  65 NW17G23   30.43S WCI -21
TRACY          SUNNY      0  -8  69 NW14      30.48R WCI -19
SLAYTON        SUNNY     -2 -11  65 NW15      30.45R WCI -22
$$
MNZ065>067-074>077-082>085-091>093-261800-
   South Central Minnesota

CITY           SKY/WX    TMP DP  RH WIND       PRES   REMARKS
MANKATO        SUNNY      0 -11  60 NW8       30.45S WCI -15
NEW ULM        SUNNY     -2 -11  65 NW12      30.47R WCI -20
ST JAMES       MOSUNNY    0  -8  71 NW14      30.48S WCI -19
FAIRMONT       MOSUNNY    0  -8  71 NW13      30.44R WCI -18
GLENCOE        SUNNY      1  -7  69 NW9       30.46S WCI -14
FARIBAULT      SUNNY      3  -9  55 NW7       30.44R WCI  -9
OWATONNA       SUNNY      0  -9  65 NW9       30.42S WCI -16
WASECA         SUNNY      0  -9  65 NW9       30.45R WCI -16
ALBERT LEA     SUNNY      0  -9  65 NW9       30.41R WCI -16
$$
MNZ078>079-086>088-094>096-261800-
   Southeast Minnesota

CITY           SKY/WX    TMP DP  RH WIND       PRES   REMARKS
ROCHESTER      SUNNY      2  -8  63 N12       30.37R WCI -15
RED WING       SUNNY      7  -9  47 N5        30.44S WCI  -2
STANTON        SUNNY      5  -8  55 NW8       30.43S WCI  -9
DODGE CENTER   SUNNY      0  -8  71 N15       30.37S HAZE    WCI -20
WINONA         SUNNY     10  -4  52 NW6       30.43R WCI   1
AUSTIN         SUNNY      1  -9  60 NW12      30.39R WCI -15
PRESTON        SUNNY      1  -9  61 N8        30.37R WCI -13
$$
ABBREVIATIONS USED IN REMARKS
   TC - TEMPERATURES IN CELSIUS
  WCI - WIND CHILL INDEX
   HX - HEAT INDEX
  VSB - VISIBILITY
$$



USA.gov is the U.S. government's official web portal to all federal, state and local government web resources and services.